Location: Middle Street
(51.7167°N, 0.0333°E)
Time: 23:48:25
(UTC+00:00)

Cosmos 2263 Rocket - Pass Details

Date: 20 January 2021
Orbit: 825 x 847 km, 71.0° (Epoch: 01 March)

Event Time Altitude Azimuth Distance (km) Brightness Sun altitude
Rises 18:59:02 0° 243° (WSW) 3,402 6.5 -22.9°
Reaches altitude 10° 19:01:45 10° 254° (WSW) 2,468 5.7 -23.3°
Maximum altitude 19:06:47 32° 316° (NW) 1,420 3.7 -24.1°
Enters shadow 19:10:51 15° 13° (NNE) 2,158 4.2 -24.7°
